QPF
0.01 0.01 0.01 0.01 0.01 0.02 0.01 0.01 0.02 0.02 0.02 0.02 0.02 0.02 0.02 0.01 0.01 0.01 0.01 0.01 0.01 0.01 0.00 0.00 0.01 0.01 0.01 0.01 0.01 0.01 0.02 0.03 0.03 0.02 0.02 0.03 0.02 0.01 0.02 0.02 0.01 0.02 0.01
0.01 0.01 0.01 0.01 0.01 0.01 0.01 0.02 0.02 0.02 0.02 0.03 0.03 0.02 0.02 0.02 0.02 0.01 0.01 0.01 0.01 0.01 0.01 0.01 0.01 0.01 0.01 0.01 0.01 0.01 0.02 0.03 0.04 0.04 0.03 0.02 0.03 0.02 0.03 0.04 0.03 0.02 0.01
0.01 0.01 0.01 0.01 0.02 0.01 0.01 0.02 0.02 0.03 0.03 0.02 0.02 0.02 0.01 0.01 0.01 0.01 0.01 0.01 0.01 0.01 0.02 0.01 0.01 0.01 0.01 0.01 0.02 0.01 0.02 0.02 0.02 0.04 0.05 0.05 0.05 0.05 0.04 0.04 0.04 0.03 0.01
0.01 0.01 0.01 0.02 0.03 0.02 0.02 0.03 0.02 0.02 0.01 0.01 0.01 0.01 0.01 0.01 0.01 0.02 0.01 0.01 0.01 0.01 0.01 0.01 0.01 0.01 0.02 0.02 0.02 0.02 0.02 0.01 0.01 0.01 0.02 0.04 0.05 0.07 0.07 0.06 0.05 0.04 0.03
0.01 0.01 0.02 0.02 0.02 0.03 0.03 0.03 0.03 0.02 0.01 0.01 0.01 0.01 0.01 0.01 0.01 0.01 0.02 0.02 0.01 0.01 0.01 0.01 0.01 0.02 0.03 0.03 0.02 0.02 0.02 0.01 0.01 0.01 0.01 0.02 0.05 0.06 0.07 0.09 0.08 0.05 0.03
0.01 0.01 0.01 0.01 0.02 0.02 0.02 0.02 0.03 0.03 0.03 0.02 0.01 0.01 0.01 0.01 0.01 0.02 0.02 0.02 0.02 0.01 0.01 0.01 0.01 0.02 0.02 0.02 0.02 0.03 0.02 0.02 0.01 0.01 0.01 0.02 0.03 0.05 0.06 0.07 0.10 0.06 0.03
0.01 0.01 0.01 0.01 0.02 0.02 0.01 0.01 0.01 0.02 0.02 0.03 0.02 0.02 0.01 0.02 0.02 0.02 0.02 0.02 0.02 0.02 0.02 0.02 0.02 0.01 0.02 0.01 0.02 0.02 0.02 0.02 0.02 0.02 0.01 0.01 0.02 0.04 0.05 0.06 0.08 0.06 0.04
0.01 0.01 0.01 0.01 0.02 0.02 0.01 0.01 0.01 0.01 0.01 0.01 0.02 0.02 0.02 0.02 0.02 0.02 0.02 0.02 0.02 0.02 0.02 0.03 0.03 0.02 0.02 0.02 0.02 0.01 0.01 0.01 0.02 0.01 0.02 0.02 0.02 0.02 0.03 0.05 0.07 0.07 0.05
0.01 0.01 0.01 0.02 0.02 0.02 0.01 0.02 0.01 0.01 0.01 0.01 0.02 0.02 0.02 0.03 0.03 0.03 0.02 0.02 0.02 0.02 0.02 0.03 0.03 0.03 0.03 0.04 0.04 0.02 0.01 0.01 0.02 0.02 0.01 0.02 0.03 0.03 0.03 0.03 0.04 0.06 0.06
0.01 0.01 0.01 0.01 0.01 0.01 0.01 0.01 0.01 0.01 0.01 0.01 0.01 0.01 0.02 0.03 0.03 0.03 0.03 0.02 0.02 0.02 0.01 0.02 0.04 0.04 0.04 0.05 0.05 0.04 0.02 0.02 0.02 0.02 0.02 0.02 0.02 0.03 0.04 0.03 0.03 0.04 0.05
0.01 0.01 0.01 0.01 0.01 0.01 0.01 0.01 0.01 0.01 0.01 0.00 0.01 0.01 0.01 0.02 0.02 0.02 0.01 0.01 0.01 0.01 0.02 0.03 0.03 0.02 0.03 0.04 0.05 0.05 0.04 0.03 0.03 0.03 0.02 0.02 0.03 0.03 0.04 0.04 0.03 0.04 0.04
0.02 0.02 0.01 0.02 0.02 0.01 0.01 0.01 0.01 0.01 0.01 0.01 0.01 0.01 0.01 0.01 0.02 0.02 0.01 0.01 0.01 0.01 0.02 0.02 0.02 0.03 0.03 0.03 0.04 0.05 0.05 0.05 0.03 0.04 0.03 0.03 0.04 0.04 0.04 0.04 0.04 0.05 0.04
0.02 0.02 0.01 0.01 0.01 0.02 0.01 0.01 0.01 0.01 0.01 0.01 0.01 0.01 0.01 0.01 0.01 0.01 0.01 0.01 0.01 0.01 0.01 0.01 0.01 0.02 0.02 0.02 0.03 0.03 0.04 0.04 0.04 0.06 0.05 0.03 0.04 0.05 0.05 0.05 0.05 0.05 0.04
0.01 0.01 0.01 0.01 0.01 0.01 0.01 0.01 0.01 0.01 0.01 0.00 0.00 0.00 0.01 0.01 0.01 0.01 0.01 0.01 0.01 0.01 0.01 0.01 0.01 0.01 0.02 0.02 0.02 0.02 0.02 0.03 0.04 0.05 0.05 0.03 0.03 0.04 0.04 0.05 0.05 0.04 0.04
0.00 0.00 0.01 0.01 0.01 0.02 0.01 0.01 0.01 0.01 0.01 0.01 0.01 0.00 0.01 0.01 0.01 0.02 0.02 0.01 0.01 0.01 0.01 0.01 0.01 0.01 0.01 0.02 0.02 0.02 0.02 0.03 0.04 0.04 0.04 0.04 0.04 0.04 0.04 0.04 0.04 0.05 0.05
0.01 0.01 0.01 0.01 0.02 0.02 0.02 0.01 0.01 0.01 0.01 0.01 0.01 0.01 0.01 0.01 0.01 0.01 0.01 0.01 0.02 0.02 0.02 0.02 0.02 0.01 0.01 0.01 0.02 0.02 0.03 0.03 0.03 0.04 0.05 0.05 0.05 0.05 0.04 0.04 0.04 0.04 0.03
0.01 0.01 0.01 0.02 0.02 0.02 0.02 0.01 0.01 0.01 0.01 0.01 0.01 0.01 0.01 0.01 0.01 0.01 0.01 0.01 0.02 0.02 0.02 0.02 0.02 0.02 0.02 0.02 0.02 0.03 0.03 0.03 0.03 0.03 0.04 0.05 0.06 0.06 0.04 0.04 0.04 0.03 0.02
0.01 0.01 0.01 0.01 0.01 0.02 0.02 0.02 0.02 0.02 0.02 0.02 0.02 0.02 0.02 0.01 0.01 0.01 0.01 0.01 0.01 0.02 0.02 0.02 0.02 0.02 0.02 0.03 0.03 0.03 0.03 0.04 0.04 0.03 0.04 0.04 0.05 0.05 0.05 0.04 0.03 0.03 0.02
0.00 0.01 0.01 0.01 0.01 0.01 0.02 0.02 0.03 0.03 0.03 0.03 0.03 0.03 0.02 0.02 0.02 0.02 0.02 0.01 0.01 0.02 0.02 0.03 0.02 0.02 0.02 0.02 0.03 0.04 0.04 0.05 0.06 0.06 0.05 0.05 0.06 0.06 0.06 0.04 0.03 0.02 0.02
0.00 0.01 0.01 0.01 0.01 0.01 0.01 0.01 0.02 0.03 0.04 0.04 0.04 0.03 0.03 0.03 0.03 0.03 0.02 0.02 0.02 0.02 0.02 0.03 0.03 0.04 0.03 0.03 0.03 0.04 0.04 0.05 0.06 0.07 0.09 0.08 0.08 0.08 0.08 0.07 0.05 0.03 0.03
0.01 0.01 0.01 0.02 0.02 0.02 0.02 0.02 0.02 0.02 0.02 0.03 0.03 0.03 0.03 0.03 0.03 0.03 0.03 0.02 0.02 0.03 0.03 0.03 0.03 0.04 0.05 0.05 0.04 0.05 0.05 0.05 0.05 0.06 0.06 0.08 0.10 0.10 0.10 0.09 0.07 0.05 0.04
0.01 0.01 0.01 0.02 0.03 0.03 0.04 0.04 0.04 0.04 0.03 0.03 0.03 0.04 0.04 0.03 0.03 0.03 0.02 0.02 0.02 0.02 0.02 0.02 0.02 0.03 0.04 0.05 0.06 0.06 0.07 0.07 0.07 0.06 0.07 0.06 0.07 0.09 0.11 0.11 0.09 0.07 0.05
0.01 0.01 0.01 0.02 0.02 0.03 0.03 0.04 0.04 0.05 0.05 0.05 0.05 0.05 0.05 0.04 0.04 0.03 0.02 0.02 0.02 0.02 0.02 0.02 0.02 0.03 0.03 0.04 0.05 0.06 0.07 0.07 0.08 0.07 0.08 0.08 0.08 0.08 0.09 0.11 0.12 0.10 0.07
0.02 0.02 0.02 0.01 0.01 0.01 0.02 0.02 0.03 0.04 0.04 0.04 0.05 0.06 0.06 0.05 0.05 0.04 0.03 0.02 0.02 0.01 0.01 0.02 0.02 0.03 0.03 0.04 0.04 0.05 0.06 0.06 0.07 0.07 0.07 0.08 0.09 0.09 0.08 0.08 0.09 0.10 0.09
0.01 0.01 0.01 0.01 0.01 0.01 0.01 0.02 0.02 0.02 0.02 0.02 0.03 0.03 0.03 0.03 0.03 0.03 0.02 0.02 0.01 0.01 0.01 0.01 0.02 0.02 0.02 0.03 0.03 0.04 0.05 0.05 0.05 0.05 0.06 0.06 0.07 0.08 0.08 0.07 0.06 0.06 0.07
0.00 0.00 0.00 0.01 0.01 0.01 0.01 0.02 0.02 0.02 0.01 0.02 0.02 0.02 0.02 0.02 0.02 0.02 0.02 0.02 0.01 0.01 0.01 0.01 0.01 0.02 0.02 0.02 0.03 0.03 0.04 0.04 0.04 0.05 0.05 0.05 0.05 0.05 0.05 0.06 0.05 0.04 0.04
MSLP
1019.38 1019.68 1019.98 1020.27 1020.52 1020.73 1020.91 1021.08 1021.25 1021.44 1021.65 1021.88 1022.11 1022.35 1022.57 1022.75 1022.91 1023.02 1023.11 1023.17 1023.22 1023.26 1023.28 1023.29 1023.26 1023.20 1023.10 1022.94 1022.75 1022.53 1022.29 1022.03 1021.77 1021.49 1021.21 1020.90 1020.57 1020.20 1019.81 1019.39 1018.97 1018.55 1018.16
1019.59 1019.89 1020.19 1020.47 1020.72 1020.93 1021.13 1021.32 1021.51 1021.71 1021.93 1022.16 1022.40 1022.63 1022.84 1023.03 1023.18 1023.29 1023.38 1023.45 1023.49 1023.52 1023.53 1023.51 1023.46 1023.38 1023.28 1023.13 1022.97 1022.79 1022.61 1022.42 1022.22 1022.01 1021.77 1021.49 1021.16 1020.77 1020.35 1019.88 1019.41 1018.94 1018.49
1019.80 1020.11 1020.40 1020.68 1020.93 1021.15 1021.36 1021.57 1021.78 1021.99 1022.22 1022.45 1022.68 1022.90 1023.09 1023.26 1023.40 1023.50 1023.58 1023.63 1023.67 1023.68 1023.67 1023.63 1023.57 1023.48 1023.37 1023.24 1023.11 1022.98 1022.85 1022.73 1022.60 1022.46 1022.27 1022.03 1021.72 1021.34 1020.89 1020.40 1019.88 1019.36 1018.88
1019.98 1020.30 1020.60 1020.88 1021.14 1021.37 1021.60 1021.82 1022.04 1022.27 1022.50 1022.73 1022.95 1023.14 1023.31 1023.45 1023.56 1023.64 1023.71 1023.74 1023.76 1023.76 1023.74 1023.69 1023.62 1023.52 1023.41 1023.30 1023.19 1023.10 1023.03 1022.97 1022.91 1022.84 1022.71 1022.52 1022.24 1021.88 1021.44 1020.94 1020.40 1019.86 1019.35
1020.10 1020.45 1020.77 1021.06 1021.32 1021.57 1021.82 1022.06 1022.30 1022.54 1022.77 1022.99 1023.19 1023.36 1023.50 1023.60 1023.68 1023.74 1023.77 1023.80 1023.81 1023.80 1023.77 1023.72 1023.64 1023.55 1023.44 1023.34 1023.26 1023.20 1023.18 1023.17 1023.17 1023.15 1023.09 1022.95 1022.73 1022.41 1022.00 1021.51 1020.99 1020.44 1019.92
1020.14 1020.53 1020.88 1021.19 1021.47 1021.74 1022.00 1022.26 1022.52 1022.77 1023.01 1023.22 1023.40 1023.54 1023.64 1023.71 1023.75 1023.78 1023.80 1023.81 1023.82 1023.82 1023.79 1023.75 1023.68 1023.60 1023.51 1023.42 1023.35 1023.32 1023.32 1023.36 1023.40 1023.44 1023.43 1023.36 1023.19 1022.93 1022.56 1022.12 1021.63 1021.11 1020.60
1020.11 1020.54 1020.92 1021.25 1021.56 1021.85 1022.14 1022.42 1022.70 1022.96 1023.20 1023.40 1023.56 1023.67 1023.74 1023.77 1023.79 1023.79 1023.80 1023.81 1023.83 1023.84 1023.84 1023.82 1023.77 1023.71 1023.64 1023.57 1023.52 1023.51 1023.53 1023.59 1023.66 1023.74 1023.78 1023.76 1023.66 1023.46 1023.16 1022.77 1022.32 1021.84 1021.35
1020.00 1020.47 1020.89 1021.26 1021.59 1021.91 1022.23 1022.53 1022.83 1023.11 1023.34 1023.54 1023.67 1023.75 1023.79 1023.79 1023.79 1023.78 1023.78 1023.80 1023.84 1023.89 1023.93 1023.95 1023.95 1023.92 1023.88 1023.84 1023.81 1023.80 1023.84 1023.91 1024.01 1024.11 1024.18 1024.21 1024.16 1024.01 1023.77 1023.45 1023.05 1022.62 1022.16
1019.83 1020.35 1020.79 1021.19 1021.56 1021.91 1022.26 1022.59 1022.91 1023.19 1023.43 1023.61 1023.73 1023.79 1023.80 1023.78 1023.76 1023.75 1023.76 1023.82 1023.89 1023.99 1024.09 1024.17 1024.23 1024.25 1024.26 1024.24 1024.24 1024.25 1024.29 1024.37 1024.47 1024.58 1024.67 1024.72 1024.71 1024.61 1024.42 1024.14 1023.79 1023.39 1022.97
1019.61 1020.16 1020.64 1021.07 1021.47 1021.86 1022.23 1022.59 1022.93 1023.23 1023.47 1023.64 1023.74 1023.78 1023.77 1023.75 1023.72 1023.72 1023.76 1023.85 1023.99 1024.15 1024.32 1024.48 1024.61 1024.70 1024.76 1024.79 1024.81 1024.84 1024.89 1024.96 1025.06 1025.16 1025.26 1025.32 1025.32 1025.24 1025.08 1024.83 1024.51 1024.14 1023.73
1019.34 1019.91 1020.42 1020.88 1021.32 1021.74 1022.15 1022.54 1022.90 1023.20 1023.44 1023.61 1023.70 1023.73 1023.72 1023.69 1023.67 1023.70 1023.78 1023.93 1024.14 1024.38 1024.63 1024.88 1025.09 1025.25 1025.38 1025.45 1025.51 1025.55 1025.60 1025.67 1025.75 1025.84 1025.92 1025.97 1025.96 1025.88 1025.73 1025.49 1025.18 1024.82 1024.42
1019.00 1019.59 1020.12 1020.62 1021.10 1021.56 1022.00 1022.42 1022.80 1023.11 1023.36 1023.52 1023.61 1023.64 1023.63 1023.61 1023.63 1023.69 1023.83 1024.05 1024.33 1024.65 1025.00 1025.33 1025.63 1025.87 1026.05 1026.18 1026.27 1026.33 1026.38 1026.44 1026.50 1026.57 1026.62 1026.64 1026.60 1026.51 1026.33 1026.08 1025.77 1025.40 1025.00
1018.59 1019.19 1019.75 1020.28 1020.79 1021.29 1021.78 1022.23 1022.62 1022.96 1023.21 1023.38 1023.47 1023.50 1023.51 1023.53 1023.58 1023.71 1023.91 1024.20 1024.56 1024.97 1025.40 1025.81 1026.18 1026.49 1026.73 1026.90 1027.02 1027.09 1027.15 1027.19 1027.23 1027.27 1027.28 1027.26 1027.19 1027.06 1026.86 1026.59 1026.25 1025.87 1025.45
1018.07 1018.69 1019.28 1019.85 1020.40 1020.95 1021.47 1021.95 1022.37 1022.72 1022.98 1023.16 1023.27 1023.33 1023.37 1023.43 1023.54 1023.73 1024.00 1024.37 1024.80 1025.29 1025.79 1026.26 1026.69 1027.06 1027.34 1027.54 1027.68 1027.76 1027.82 1027.85 1027.87 1027.87 1027.85 1027.79 1027.68 1027.51 1027.27 1026.97 1026.61 1026.20 1025.76
1017.45 1018.08 1018.70 1019.32 1019.92 1020.51 1021.07 1021.58 1022.03 1022.39 1022.67 1022.88 1023.01 1023.11 1023.20 1023.32 1023.49 1023.75 1024.10 1024.53 1025.04 1025.58 1026.13 1026.66 1027.12 1027.51 1027.82 1028.03 1028.18 1028.27 1028.32 1028.34 1028.34 1028.31 1028.26 1028.17 1028.03 1027.82 1027.56 1027.22 1026.84 1026.41 1025.95
1016.72 1017.38 1018.04 1018.70 1019.35 1019.99 1020.59 1021.13 1021.60 1021.99 1022.30 1022.53 1022.70 1022.85 1023.00 1023.19 1023.44 1023.77 1024.19 1024.69 1025.24 1025.83 1026.40 1026.94 1027.42 1027.81 1028.12 1028.33 1028.48 1028.56 1028.60 1028.62 1028.60 1028.57 1028.50 1028.38 1028.22 1027.99 1027.70 1027.35 1026.94 1026.50 1026.02
1015.91 1016.61 1017.32 1018.03 1018.73 1019.40 1020.04 1020.61 1021.11 1021.52 1021.86 1022.13 1022.35 1022.56 1022.78 1023.04 1023.37 1023.77 1024.26 1024.80 1025.39 1025.99 1026.58 1027.11 1027.57 1027.95 1028.23 1028.44 1028.57 1028.64 1028.68 1028.69 1028.67 1028.63 1028.56 1028.44 1028.26 1028.03 1027.73 1027.37 1026.95 1026.49 1026.00
1015.08 1015.81 1016.56 1017.32 1018.06 1018.78 1019.44 1020.04 1020.56 1021.01 1021.38 1021.69 1021.97 1022.24 1022.54 1022.88 1023.28 1023.75 1024.29 1024.87 1025.48 1026.08 1026.65 1027.15 1027.58 1027.92 1028.18 1028.35 1028.47 1028.54 1028.57 1028.58 1028.57 1028.54 1028.47 1028.35 1028.18 1027.95 1027.65 1027.29 1026.88 1026.41 1025.91
1014.26 1015.03 1015.82 1016.61 1017.39 1018.13 1018.82 1019.44 1019.99 1020.46 1020.87 1021.23 1021.57 1021.91 1022.28 1022.70 1023.17 1023.70 1024.28 1024.89 1025.50 1026.08 1026.61 1027.08 1027.46 1027.76 1027.98 1028.13 1028.23 1028.29 1028.33 1028.35 1028.35 1028.33 1028.27 1028.17 1028.01 1027.79 1027.49 1027.14 1026.73 1026.26 1025.76
1013.50 1014.29 1015.11 1015.93 1016.73 1017.49 1018.19 1018.83 1019.40 1019.90 1020.35 1020.76 1021.16 1021.57 1022.01 1022.50 1023.03 1023.61 1024.22 1024.84 1025.44 1026.00 1026.49 1026.91 1027.25 1027.50 1027.68 1027.81 1027.89 1027.95 1027.99 1028.03 1028.04 1028.04 1028.00 1027.91 1027.76 1027.55 1027.26 1026.91 1026.51 1026.05 1025.55
1012.81 1013.62 1014.45 1015.28 1016.09 1016.86 1017.57 1018.22 1018.81 1019.33 1019.82 1020.28 1020.74 1021.21 1021.72 1022.27 1022.86 1023.47 1024.10 1024.72 1025.30 1025.83 1026.29 1026.66 1026.95 1027.17 1027.32 1027.43 1027.51 1027.56 1027.62 1027.66 1027.69 1027.71 1027.68 1027.60 1027.46 1027.24 1026.96 1026.61 1026.21 1025.76 1025.26
1012.20 1013.01 1013.84 1014.67 1015.48 1016.25 1016.96 1017.62 1018.22 1018.77 1019.28 1019.79 1020.30 1020.83 1021.40 1021.99 1022.62 1023.27 1023.91 1024.52 1025.09 1025.59 1026.01 1026.34 1026.60 1026.79 1026.92 1027.02 1027.09 1027.16 1027.22 1027.27 1027.32 1027.34 1027.31 1027.23 1027.09 1026.87 1026.59 1026.23 1025.83 1025.39 1024.90
1011.67 1012.47 1013.28 1014.10 1014.90 1015.66 1016.36 1017.02 1017.63 1018.20 1018.74 1019.28 1019.84 1020.42 1021.03 1021.66 1022.32 1022.98 1023.63 1024.23 1024.78 1025.26 1025.65 1025.96 1026.19 1026.37 1026.49 1026.58 1026.66 1026.73 1026.80 1026.86 1026.91 1026.93 1026.90 1026.81 1026.65 1026.42 1026.13 1025.77 1025.36 1024.92 1024.46
1011.20 1011.98 1012.77 1013.57 1014.34 1015.08 1015.78 1016.43 1017.04 1017.62 1018.19 1018.76 1019.35 1019.96 1020.60 1021.27 1021.94 1022.61 1023.26 1023.86 1024.39 1024.85 1025.22 1025.52 1025.74 1025.91 1026.03 1026.12 1026.21 1026.28 1026.35 1026.42 1026.46 1026.46 1026.42 1026.31 1026.14 1025.89 1025.58 1025.22 1024.81 1024.38 1023.93
1010.80 1011.54 1012.31 1013.07 1013.82 1014.53 1015.21 1015.85 1016.46 1017.05 1017.63 1018.22 1018.83 1019.46 1020.12 1020.80 1021.49 1022.16 1022.80 1023.40 1023.92 1024.37 1024.73 1025.02 1025.24 1025.41 1025.54 1025.64 1025.72 1025.80 1025.87 1025.92 1025.95 1025.94 1025.87 1025.75 1025.55 1025.29 1024.97 1024.60 1024.20 1023.78 1023.35
1010.45 1011.17 1011.89 1012.62 1013.33 1014.02 1014.67 1015.29 1015.89 1016.48 1017.07 1017.67 1018.28 1018.93 1019.60 1020.28 1020.97 1021.64 1022.28 1022.87 1023.39 1023.83 1024.19 1024.49 1024.71 1024.88 1025.01 1025.12 1025.20 1025.27 1025.33 1025.37 1025.38 1025.34 1025.26 1025.11 1024.90 1024.62 1024.30 1023.93 1023.54 1023.14 1022.73
Thickness
5668 5666 5664 5662 5661 5659 5656 5655 5653 5651 5650 5647 5645 5643 5642 5640 5639 5637 5636 5634 5633 5632 5630 5629 5628 5627 5625 5623 5621 5619 5618 5616 5614 5615 5615 5616 5617 5617 5618 5617 5617 5617 5617
5661 5659 5657 5656 5654 5652 5651 5650 5648 5646 5644 5642 5640 5638 5637 5636 5635 5633 5632 5630 5629 5627 5626 5625 5623 5622 5620 5618 5616 5614 5612 5611 5609 5608 5608 5609 5609 5610 5610 5610 5610 5611 5611
5654 5652 5650 5649 5648 5646 5645 5644 5642 5640 5638 5637 5636 5634 5633 5632 5630 5630 5628 5627 5625 5624 5622 5620 5619 5617 5615 5613 5611 5609 5607 5607 5604 5602 5601 5601 5602 5602 5602 5603 5603 5603 5604
5646 5645 5643 5642 5642 5641 5639 5638 5636 5634 5633 5631 5630 5629 5628 5627 5626 5625 5623 5622 5620 5619 5617 5616 5614 5613 5611 5609 5607 5605 5603 5600 5598 5596 5595 5594 5594 5594 5594 5594 5595 5595 5596
5638 5637 5636 5636 5635 5634 5633 5631 5629 5628 5627 5626 5624 5623 5623 5622 5622 5620 5618 5616 5614 5612 5611 5610 5609 5608 5607 5605 5604 5600 5598 5594 5592 5590 5588 5587 5587 5586 5586 5587 5587 5587 5588
5631 5630 5630 5629 5628 5626 5625 5624 5622 5621 5620 5619 5618 5617 5616 5617 5617 5616 5613 5610 5608 5606 5604 5604 5603 5602 5602 5600 5599 5598 5595 5591 5588 5585 5584 5583 5583 5582 5581 5580 5579 5579 5580
5624 5623 5622 5621 5619 5619 5618 5616 5614 5613 5612 5611 5610 5610 5609 5610 5611 5610 5608 5604 5602 5600 5598 5597 5597 5597 5595 5593 5593 5592 5590 5589 5588 5584 5581 5580 5580 5579 5576 5573 5573 5573 5575
5614 5614 5613 5612 5611 5610 5609 5608 5606 5605 5604 5604 5603 5603 5602 5603 5603 5602 5600 5597 5595 5594 5593 5591 5590 5590 5589 5587 5586 5584 5583 5582 5581 5580 5579 5578 5577 5575 5573 5571 5569 5567 5567
5607 5606 5605 5604 5602 5601 5601 5600 5599 5597 5596 5596 5596 5595 5594 5595 5595 5594 5592 5589 5588 5587 5586 5585 5584 5583 5583 5581 5578 5577 5576 5575 5575 5574 5574 5572 5571 5569 5567 5563 5560 5559 5559
5600 5600 5599 5597 5595 5594 5593 5593 5591 5589 5588 5588 5587 5587 5587 5587 5587 5587 5585 5582 5580 5579 5578 5578 5577 5576 5576 5574 5571 5570 5569 5568 5567 5566 5565 5564 5562 5561 5560 5558 5556 5553 5552
5593 5592 5591 5590 5589 5588 5586 5585 5583 5582 5581 5580 5579 5579 5579 5579 5579 5578 5577 5575 5573 5572 5570 5569 5569 5569 5568 5566 5564 5562 5563 5562 5559 5558 5556 5555 5553 5552 5551 5550 5549 5548 5546
5584 5583 5582 5581 5581 5580 5577 5576 5575 5573 5572 5571 5570 5570 5570 5570 5570 5569 5569 5568 5567 5564 5563 5562 5561 5561 5559 5557 5556 5556 5555 5553 5550 5548 5547 5546 5544 5543 5542 5541 5540 5539 5539
5575 5574 5573 5573 5572 5571 5569 5567 5566 5565 5563 5562 5561 5561 5561 5561 5560 5561 5561 5560 5558 5556 5555 5554 5553 5551 5549 5548 5547 5547 5545 5542 5541 5539 5538 5537 5536 5535 5534 5532 5531 5530 5529
5566 5565 5564 5564 5563 5562 5562 5561 5559 5557 5556 5555 5554 5553 5553 5552 5551 5551 5550 5549 5548 5546 5545 5544 5543 5541 5539 5538 5537 5536 5534 5534 5532 5531 5530 5528 5526 5525 5524 5522 5521 5520 5519
5558 5557 5557 5556 5555 5554 5553 5553 5553 5552 5551 5550 5548 5547 5546 5544 5545 5545 5542 5541 5539 5537 5535 5532 5530 5529 5527 5525 5525 5524 5523 5523 5522 5521 5519 5517 5516 5515 5513 5512 5510 5509 5508
5550 5549 5549 5548 5547 5545 5544 5544 5544 5544 5544 5543 5543 5541 5540 5540 5538 5536 5535 5534 5532 5529 5526 5522 5520 5518 5517 5516 5515 5513 5513 5512 5512 5511 5510 5508 5507 5505 5503 5502 5500 5499 5498
5542 5542 5541 5540 5539 5538 5537 5535 5534 5534 5534 5534 5533 5532 5531 5530 5529 5528 5526 5524 5522 5519 5515 5513 5511 5509 5508 5507 5506 5505 5504 5503 5503 5501 5500 5499 5497 5496 5494 5492 5490 5488 5487
5534 5535 5534 5532 5531 5530 5529 5528 5526 5525 5524 5522 5522 5522 5522 5521 5520 5519 5517 5514 5509 5507 5505 5503 5501 5500 5499 5498 5497 5496 5495 5494 5493 5492 5491 5490 5488 5487 5485 5483 5481 5479 5477
5527 5526 5525 5524 5523 5522 5521 5519 5518 5517 5516 5513 5512 5511 5511 5510 5509 5507 5506 5503 5500 5497 5494 5493 5491 5490 5489 5488 5487 5487 5485 5484 5484 5483 5481 5480 5479 5477 5476 5474 5472 5470 5468
5520 5520 5519 5516 5515 5514 5512 5511 5510 5508 5507 5506 5504 5502 5501 5499 5497 5495 5494 5492 5490 5487 5485 5483 5482 5480 5479 5479 5477 5476 5476 5475 5474 5473 5472 5471 5469 5468 5467 5465 5463 5461 5459
5512 5511 5512 5509 5507 5506 5504 5503 5502 5500 5499 5497 5496 5494 5494 5490 5489 5486 5484 5482 5480 5477 5475 5473 5471 5470 5470 5469 5467 5467 5466 5465 5464 5463 5462 5461 5461 5459 5458 5456 5454 5452 5450
5505 5503 5502 5501 5499 5498 5496 5495 5494 5492 5490 5488 5486 5485 5484 5481 5478 5476 5474 5472 5470 5468 5466 5463 5462 5461 5460 5459 5458 5457 5456 5455 5454 5453 5452 5451 5451 5451 5449 5447 5446 5444 5442
5498 5496 5494 5493 5492 5490 5488 5486 5485 5483 5482 5480 5478 5476 5473 5471 5469 5467 5464 5462 5460 5458 5456 5454 5452 5451 5449 5448 5447 5446 5446 5445 5444 5443 5442 5441 5441 5440 5439 5438 5437 5436 5434
5491 5490 5488 5486 5484 5481 5479 5478 5476 5475 5473 5471 5469 5467 5464 5461 5459 5457 5455 5452 5450 5448 5446 5445 5443 5441 5439 5438 5437 5436 5435 5434 5434 5433 5432 5432 5431 5430 5429 5429 5428 5427 5425
5485 5483 5481 5479 5477 5474 5472 5470 5468 5466 5464 5462 5460 5458 5455 5452 5450 5447 5445 5443 5441 5439 5437 5435 5433 5431 5430 5428 5427 5426 5425 5425 5424 5423 5423 5422 5421 5420 5419 5418 5418 5417 5416
5478 5476 5474 5472 5470 5468 5465 5463 5460 5458 5456 5454 5451 5449 5446 5443 5441 5438 5436 5434 5432 5430 5428 5426 5424 5422 5420 5419 5417 5416 5416 5415 5415 5414 5413 5412 5412 5410 5409 5408 5408 5408 5407